Weather History for Berlin, NH

Change the Weather History Date:

Saturday, February 23, 2013

  Actual Average Record
Temperature  
Mean Temperature 26 °F -  
Max Temperature 33 °F 29 °F 44 °F (2014)
Min Temperature 19 °F 3 °F -18 °F (2011)
Degree Days  
Heating Degree Days 39    
Moisture  
Dew Point 25 °F    
Average Humidity 80    
Maximum Humidity 93    
Minimum Humidity 66    
Precipitation  
Precipitation 0.07 in - - ()
Sea Level Pressure  
Sea Level Pressure 30.05 in    
Wind  
Wind Speed 6 mph (SSE)    
Max Wind Speed 14 mph    
Max Gust Speed 23 mph    
Visibility 6 miles    
Events Snow    
Averages and records for this station are not official NWS values.
T = Trace of Precipitation, MM = Missing Value Source: NWS Daily Summary

Daily Weather History Graph

Daily Weather History Graph

Search for Another Location

Airport:

Trip Planner

Search our weather history database for the weather conditions in past years. The results will help you decide how hot, cold, wet, or windy it might be!

Date:

Astronomy

Feb. 23, 2013 Rise Set
Actual Time 6:31 AM EST 5:24 PM EST
Civil Twilight 6:02 AM EST 5:54 PM EST
Nautical Twilight 5:28 AM EST 6:28 PM EST
Astronomical Twilight 4:54 AM EST 7:01 PM EST
Moon 3:29 PM EST (2/23) 4:55 AM EST (2/23)
Length of Visible Light 11h 51m
Length of Day
10h 52m
Waxing Gibbous, 95% of the Moon is Illuminated
Feb 23
Waxing Gibbous
Feb 25
Full
Mar 4
Last Quarter
Mar 11
New
Mar 19
First Quarter

Hourly Weather History & Observations

Time (EST) Temp. Windchill Dew Point Humidity Pressure Visibility Wind Dir Wind Speed Gust Speed Precip Events Conditions
12:52 AM 25.0 °F - 17.1 °F 72% 30.30 in 10.0 mi Calm Calm - N/A   Partly Cloudy
1:52 AM 27.0 °F 23.0 °F 17.1 °F 66% 30.27 in 10.0 mi SSE 3.5 mph - N/A   Overcast
2:52 AM 19.9 °F - 16.0 °F 85% 30.25 in 10.0 mi Calm Calm - N/A   Mostly Cloudy
3:52 AM 19.9 °F - 16.0 °F 85% 30.24 in 10.0 mi Calm Calm - N/A   Overcast
4:52 AM 21.9 °F - 18.0 °F 85% 30.23 in 10.0 mi Calm Calm - N/A   Overcast
5:52 AM 24.1 °F 19.7 °F 18.0 °F 77% 30.24 in 10.0 mi North 3.5 mph - N/A   Overcast
6:52 AM 24.1 °F - 18.0 °F 77% 30.22 in 10.0 mi Calm Calm - N/A   Overcast
7:52 AM 28.9 °F 21.9 °F 19.9 °F 69% 30.20 in 10.0 mi SSE 6.9 mph - N/A   Overcast
8:52 AM 30.0 °F 21.7 °F 21.9 °F 72% 30.19 in 10.0 mi SSE 9.2 mph 16.1 mph N/A   Overcast
9:52 AM 30.9 °F 22.8 °F 23.0 °F 72% 30.17 in 10.0 mi SSE 9.2 mph - N/A   Overcast
10:52 AM 32.0 °F 22.1 °F 24.1 °F 73% 30.16 in 10.0 mi SE 13.8 mph - N/A   Overcast
11:52 AM 32.0 °F 22.5 °F 24.1 °F 73% 30.14 in 10.0 mi SSE 12.7 mph 20.7 mph N/A   Overcast
12:11 PM 32.0 °F 23.6 °F 24.8 °F 75% 30.09 in 10.0 mi SE 10.4 mph 17.3 mph N/A   Overcast
12:52 PM 32.0 °F 24.2 °F 24.1 °F 73% 30.12 in 10.0 mi SSE 9.2 mph - N/A   Overcast
1:15 PM 32.0 °F 23.0 °F 24.8 °F 75% 30.06 in 10.0 mi SSE 11.5 mph 18.4 mph N/A   Overcast
1:52 PM 33.1 °F 24.4 °F 24.1 °F 70% 30.09 in 9.0 mi SSE 11.5 mph 18.4 mph N/A   Overcast
2:52 PM 32.0 °F 25.6 °F 25.0 °F 75% 30.09 in 10.0 mi SE 6.9 mph - 0.00 in   Overcast
3:39 PM 32.0 °F 22.1 °F 24.8 °F 75% 30.02 in 2.5 mi SSE 13.8 mph 20.7 mph 0.00 in Snow Light Snow
3:44 PM 32.0 °F 22.5 °F 24.8 °F 75% 30.02 in 1.2 mi SSE 12.7 mph - 0.00 in Snow Light Snow
3:52 PM 32.0 °F 25.6 °F 26.1 °F 79% 30.07 in 2.0 mi South 6.9 mph 18.4 mph 0.00 in Snow Light Snow
3:58 PM 32.0 °F 23.0 °F 26.6 °F 80% 30.02 in 4.0 mi SE 11.5 mph 17.3 mph 0.00 in Snow Light Snow
4:52 PM 32.0 °F 22.5 °F 25.0 °F 75% 30.06 in 7.0 mi SSE 12.7 mph 20.7 mph 0.00 in Snow Light Snow
5:23 PM 32.0 °F 23.0 °F 24.8 °F 75% 30.00 in 1.8 mi SSE 11.5 mph 23.0 mph 0.00 in Snow Light Snow
5:31 PM 32.0 °F 23.0 °F 26.6 °F 80% 30.00 in 1.8 mi SSE 11.5 mph 19.6 mph 0.00 in Snow Light Snow
5:38 PM 32.0 °F 24.8 °F 26.6 °F 80% 30.00 in 2.5 mi SSE 8.1 mph 17.3 mph 0.00 in Snow Light Snow
5:52 PM 30.9 °F 23.5 °F 26.1 °F 82% 30.05 in 2.0 mi SSE 8.1 mph - 0.00 in Snow Light Snow
6:24 PM 30.2 °F 23.4 °F 26.6 °F 86% 30.00 in 1.5 mi SSE 6.9 mph - 0.01 in Snow Light Snow
6:38 PM 30.2 °F 23.4 °F 26.6 °F 86% 29.99 in 3.0 mi SSE 6.9 mph - 0.01 in Snow Light Snow
6:52 PM 32.0 °F 27.5 °F 27.0 °F 82% 30.04 in 9.0 mi SSE 4.6 mph - 0.01 in   Overcast
7:38 PM 32.0 °F 23.6 °F 26.6 °F 80% 29.98 in 3.0 mi South 10.4 mph 17.3 mph 0.00 in Snow Light Snow
7:52 PM 32.0 °F 25.6 °F 27.0 °F 82% 30.02 in 4.0 mi SSE 6.9 mph - 0.00 in Snow Light Snow
8:32 PM 32.0 °F 26.4 °F 26.6 °F 80% 29.97 in 8.0 mi SE 5.8 mph - 0.00 in   Overcast
8:52 PM 33.1 °F 27.7 °F 27.0 °F 78% 30.01 in 10.0 mi SSE 5.8 mph - 0.00 in   Overcast
9:18 PM 33.8 °F 27.7 °F 26.6 °F 75% 29.96 in 2.5 mi SSE 6.9 mph - 0.00 in Snow Light Snow
9:23 PM 32.0 °F 24.2 °F 28.4 °F 87% 29.96 in 1.2 mi SSE 9.2 mph - 0.00 in Snow Light Snow
9:38 PM 32.0 °F 25.6 °F 28.4 °F 87% 29.96 in 1.2 mi SSE 6.9 mph - 0.01 in Snow Light Snow
9:52 PM 32.0 °F 26.4 °F 28.0 °F 85% 30.00 in 1.2 mi SE 5.8 mph - 0.02 in Snow Light Snow
10:07 PM 30.2 °F 25.4 °F 28.4 °F 93% 29.95 in 0.8 mi SSE 4.6 mph - 0.02 in Snow Light Snow
10:19 PM 30.2 °F 25.4 °F 28.4 °F 93% 29.94 in 1.2 mi SSE 4.6 mph - 0.03 in Snow Light Snow
10:28 PM 30.2 °F 26.7 °F 28.4 °F 93% 29.93 in 2.0 mi SSE 3.5 mph - 0.03 in Snow Light Snow
10:44 PM 30.2 °F 26.7 °F 28.4 °F 93% 29.93 in 3.0 mi South 3.5 mph - 0.03 in Snow Light Snow
10:52 PM 30.9 °F 26.2 °F 28.0 °F 89% 29.97 in 2.0 mi SSE 4.6 mph - 0.03 in Snow Light Snow
11:07 PM 32.0 °F 24.8 °F 26.6 °F 80% 29.92 in 1.8 mi SSE 8.1 mph - 0.00 in Snow Light Snow
11:18 PM 30.2 °F 20.8 °F 26.6 °F 86% 29.92 in 1.2 mi SSE 11.5 mph 17.3 mph 0.01 in Snow Light Snow
11:24 PM 30.2 °F 22.6 °F 26.6 °F 86% 29.92 in 2.0 mi SSE 8.1 mph 17.3 mph 0.01 in Snow Light Snow
11:33 PM 30.2 °F 25.4 °F 26.6 °F 86% 29.92 in 4.0 mi SSE 4.6 mph - 0.01 in Snow Light Snow
11:45 PM 30.2 °F - 26.6 °F 86% 29.91 in 8.0 mi Calm Calm - 0.01 in Snow Light Snow
11:52 PM 30.9 °F - 27.0 °F 85% 29.95 in 9.0 mi Calm Calm - 0.01 in   Overcast